Find Starlink 5076

NORAD ID: 55401 Int'l Des: 2023-014 Owner: SPXS Country: US Constellation: starlink operational
LEOCIRCULAR

Current View

Loading 3D Globe...

About Starlink 5076

Starlink 5076 (NORAD 55401) is a starlink constellation satellite (v1.5) launched Jan 31, 2023 by SPXS of US. It operates in LEO, CIRCULAR orbit with a mass of 305.00 kg.

About Starlink 5076

Description loading...

Upcoming Passes

Passes for default location (London). Set your location on the main map for personalized predictions.

Altitude History

Loading altitude history...

Two-Line Element Set

1 55401U 23014L 26166.73787116 .00000023 00000-0 96920-5 0 9992
2 55401 69.9993 177.1760 0003966 266.9166 93.1539 14.98330207186744
Epoch: Jun 15, 2026 • Age: 12 hours

Current Status

Altitude 585.2 km
Velocity 7.57 km/s
Sub-Earth Point 64.18°N, 118.85°W
Launch Date Jan 31, 2023
Age 3.3 years
Type internet

Technical Details

Classification Payload
Mass 305.00 kg
Dry Mass 290.00 kg
Total Mass 305.00 kg
Length 0.20 m
Diameter 2.80 m
Span 9.00 m
Shape Box + pan
Manufacturer SPXS
Bus Type Starlink
Phase Status In Orbit
Owner/State SPXS/US

Most Searched